Theta_e
331 332 331 330 331 331 330 329 329 329 327 323 322 322 322 323 323 323 321 319 317 315 316 315 315 317 316 317 319 320 320 321 316 318 324 334 335 333 332 331 329 326 323
330 331 331 331 332 332 330 329 329 326 325 323 322 321 321 321 321 320 319 318 316 313 313 315 314 315 313 315 317 317 318 319 318 315 321 328 331 333 332 327 326 325 321
328 329 330 330 329 329 329 329 327 325 323 322 320 320 319 320 319 319 317 316 316 314 314 313 312 312 312 312 313 313 315 318 319 319 317 325 330 330 325 324 322 321 320
327 327 327 328 328 328 329 328 326 323 321 320 320 319 319 319 319 317 315 315 314 313 314 314 313 312 313 314 313 313 313 313 315 317 318 321 325 327 323 318 315 318 316
325 325 329 331 330 328 325 323 323 322 319 319 317 317 318 318 316 314 314 313 313 313 314 314 314 314 316 315 314 313 312 312 312 313 315 319 321 322 317 318 314 314 313
326 324 327 327 325 324 324 322 320 318 318 317 315 314 313 313 307 306 308 311 312 311 311 312 314 315 314 312 312 312 312 310 309 311 311 311 317 321 317 316 311 308 305
326 325 324 324 321 321 320 319 318 317 317 315 313 312 310 311 305 303 305 307 307 307 308 309 310 311 311 312 311 310 310 309 309 308 307 309 311 321 317 313 311 309 309
324 323 323 320 318 318 318 316 316 316 314 313 311 310 309 309 304 302 302 305 306 306 306 306 307 309 309 309 310 309 310 311 310 309 308 308 312 315 319 316 313 312 311
322 320 320 319 317 315 313 314 313 310 310 309 309 308 308 306 302 300 301 305 304 305 306 307 307 307 306 302 307 307 308 309 310 307 307 305 303 304 314 317 312 309 305
318 319 318 316 314 312 313 310 309 308 306 306 306 307 307 305 302 300 301 305 304 304 306 306 305 305 303 301 305 306 305 307 308 309 310 306 304 307 308 317 314 309 306
318 315 314 314 314 314 311 309 308 307 306 306 305 306 306 307 307 300 299 303 304 303 302 303 305 302 299 298 299 305 305 307 307 308 310 313 312 313 316 317 316 313 308
313 312 312 312 309 308 309 309 308 306 305 304 305 305 306 304 302 300 297 297 298 297 297 299 300 298 297 297 297 299 298 302 307 306 308 311 312 314 317 317 317 317 316
311 311 309 308 308 309 308 307 305 305 304 303 301 299 299 300 300 298 297 296 297 297 299 298 297 296 295 296 296 297 298 302 304 304 305 309 315 316 317 317 317 316 317
309 308 309 308 308 308 307 305 305 303 302 300 297 296 296 296 297 298 298 298 296 296 296 296 296 296 296 296 297 298 300 301 303 304 305 313 318 316 315 317 315 314 311
307 307 307 307 307 305 306 305 303 304 299 297 296 296 294 293 295 295 294 294 294 294 293 293 293 294 294 295 295 297 299 300 301 304 306 312 317 315 315 317 316 313 310
305 305 304 303 303 303 302 302 299 296 295 293 293 293 295 294 293 293 292 292 291 291 291 293 295 300 301 296 295 296 299 300 303 305 307 313 316 314 314 316 315 312 309
303 303 301 301 301 301 300 298 296 299 296 294 293 292 292 292 292 292 292 291 291 292 298 299 300 303 301 297 296 296 298 301 305 305 307 314 316 315 312 314 312 312 308
303 296 300 300 300 299 298 298 297 295 293 294 294 293 293 292 292 291 291 292 297 298 298 298 299 302 301 297 297 299 301 303 305 306 310 313 316 315 314 313 312 310 308
301 299 299 299 299 298 298 296 295 293 292 292 293 293 293 293 292 293 293 297 296 297 298 298 300 302 303 299 300 303 304 305 306 309 312 315 317 315 314 313 312 304 304
301 295 295 299 298 297 295 294 293 292 292 292 292 292 294 292 294 295 296 297 297 297 298 298 299 302 311 304 305 306 307 306 309 313 316 317 317 316 314 313 310 306 307
303 302 291 299 296 295 293 293 292 292 291 291 292 293 289 290 294 295 296 297 297 298 298 298 299 302 315 312 312 309 311 311 315 317 317 317 317 315 314 313 310 309 309
302 302 299 297 296 294 293 293 293 292 292 292 292 293 289 295 295 295 296 297 299 299 299 298 299 301 312 320 316 316 315 315 317 317 317 317 316 315 313 311 309 309 308
302 301 299 298 296 293 295 295 294 293 292 292 292 293 294 295 295 296 297 299 299 299 299 299 298 299 303 315 320 320 318 318 318 319 318 317 316 314 312 310 309 309 308
303 301 299 297 296 296 295 294 293 291 292 293 293 294 294 295 296 297 298 300 300 299 299 299 297 298 298 303 307 317 320 320 321 320 319 317 315 310 312 311 310 309 309
303 301 298 296 295 295 294 294 293 293 293 294 294 294 295 296 296 297 299 300 300 299 299 298 296 297 297 296 298 301 292 293 316 307 319 317 314 313 312 311 310 309 308
302 300 298 296 295 295 294 294 294 295 295 296 295 295 296 296 297 298 299 300 299 299 298 298 296 295 296 296 293 290 290 292 298 296 317 316 313 312 312 310 309 308 307
Wind_Speed
12 12 10 9 8 8 6 5 5 5 6 7 9 9 9 9 8 8 8 9 10 11 10 11 11 9 8 9 9 9 9 8 9 8 8 4 1 3 11 9 12 13 11
12 11 10 8 6 6 5 5 5 7 7 8 9 10 10 11 10 10 10 10 11 14 13 10 11 9 11 10 8 10 10 10 10 13 11 4 3 5 10 12 10 8 11
13 12 10 8 9 7 7 7 7 7 8 9 9 10 11 11 11 9 10 12 12 14 13 12 12 11 11 9 10 10 10 9 9 8 9 4 2 4 7 7 9 10 8
9 11 10 10 8 8 6 5 6 7 9 9 9 11 11 12 11 11 12 13 14 14 13 14 14 14 14 11 10 11 10 10 10 9 9 8 3 4 9 11 6 5 8
11 8 6 6 6 5 5 7 7 7 7 9 10 11 11 10 9 11 13 14 14 13 13 13 14 16 20 17 9 10 11 10 9 9 8 9 4 5 11 7 8 9 5
9 9 7 6 5 6 6 6 7 8 8 8 10 11 12 10 11 12 11 13 14 14 14 14 14 19 19 20 21 22 18 13 11 8 7 7 9 8 6 11 10 10 6
5 5 5 4 6 6 6 6 6 6 7 9 10 12 14 15 15 18 19 14 14 14 16 15 13 13 19 18 19 23 25 25 23 15 14 12 7 7 12 13 15 15 7
7 5 3 6 8 5 4 6 6 7 9 10 11 13 15 13 15 16 14 15 14 17 18 18 19 19 19 19 17 17 19 17 18 16 17 18 13 6 9 16 17 13 7
5 3 4 6 5 5 7 7 7 9 11 11 12 14 16 15 14 14 13 15 16 18 16 17 18 19 21 17 17 20 19 17 14 21 23 22 16 14 8 5 11 12 6
2 4 3 5 5 7 6 7 8 9 12 12 14 14 16 17 20 19 17 12 16 13 15 17 22 23 28 25 19 18 19 19 15 16 16 18 18 16 19 14 13 14 9
1 5 4 5 5 5 7 8 9 11 12 12 14 14 16 16 15 12 12 8 9 10 11 13 14 21 19 18 19 16 19 17 18 14 14 12 12 14 11 14 16 15 13
3 3 5 5 6 7 9 9 9 10 12 13 13 11 9 13 16 14 14 18 19 14 17 15 17 27 26 24 18 26 26 19 12 11 13 12 13 14 12 15 16 14 12
3 4 5 7 8 8 7 9 8 9 8 10 10 11 13 12 13 18 21 23 23 17 14 21 30 31 31 24 29 29 23 14 13 14 14 14 12 13 15 13 14 14 10
4 5 6 6 7 6 5 7 7 8 8 8 9 12 14 13 12 11 11 12 20 18 21 18 22 26 29 24 20 19 16 15 15 14 14 11 12 16 16 15 11 11 8
3 6 5 6 6 6 5 5 7 7 3 8 10 11 12 13 13 19 22 17 16 20 24 16 15 15 14 14 14 15 15 15 16 15 14 12 14 15 15 15 13 11 9
5 4 4 5 6 6 6 7 9 8 9 11 17 12 11 19 26 28 30 32 33 33 16 14 15 14 15 13 13 14 15 20 17 16 14 14 12 17 15 14 12 14 12
2 3 5 6 6 6 7 7 9 8 16 12 14 16 18 22 26 26 30 31 29 22 10 13 13 13 6 10 12 15 16 15 18 15 15 12 14 14 16 14 14 13 12
2 5 5 5 5 6 7 7 8 10 11 14 10 16 19 21 25 27 26 22 13 10 11 12 12 13 6 9 11 14 14 15 15 15 13 13 14 15 16 15 15 15 14
3 6 4 4 5 5 7 8 7 9 10 11 13 12 15 23 23 19 17 10 12 13 14 14 12 11 6 8 10 10 14 14 15 15 14 14 14 14 15 15 14 17 16
6 2 1 4 5 8 7 7 8 8 9 9 10 12 14 17 15 15 14 13 13 13 14 14 14 12 8 10 10 11 12 12 14 15 14 13 14 13 14 16 15 15 15
3 3 5 6 7 5 6 6 7 8 9 9 10 11 16 10 12 12 13 14 14 14 15 14 13 12 4 11 10 13 12 13 13 13 14 13 13 14 13 14 15 15 14
5 4 6 7 4 4 5 5 7 8 9 10 10 11 15 10 11 12 13 14 14 14 12 12 11 10 9 6 13 12 14 13 13 12 13 13 14 13 14 14 14 14 13
4 5 7 5 4 4 6 6 7 8 9 10 10 11 12 11 12 13 14 14 15 15 15 14 14 13 11 7 5 7 12 12 13 13 13 14 13 13 13 14 15 14 14
5 6 7 6 5 6 7 8 8 8 9 10 10 11 12 12 13 15 14 14 15 16 15 15 15 18 14 10 7 6 7 8 9 11 15 13 12 13 14 14 15 17 15
5 8 8 7 7 6 6 6 6 7 7 8 10 10 11 12 13 13 14 14 14 16 17 17 15 19 20 21 16 13 9 7 12 11 11 13 14 16 14 13 14 14 15
9 10 10 6 6 6 4 4 4 6 7 7 9 9 9 11 11 12 12 15 14 15 18 15 18 24 24 18 18 18 15 14 10 7 10 12 13 12 12 14 19 13 17
Wind_Direction
184 184 191 198 199 207 210 223 237 253 260 263 266 268 267 265 261 257 254 255 263 268 271 277 281 287 282 282 286 291 291 288 268 274 285 238 119 146 169 162 163 166 155
185 185 185 193 200 210 216 229 241 250 256 264 270 269 270 268 268 264 266 267 263 266 265 264 269 268 271 280 282 279 279 283 286 291 306 284 112 175 168 153 160 169 149
179 182 187 193 200 206 217 227 238 252 261 267 269 269 271 270 270 268 272 272 268 265 263 251 255 262 259 257 266 276 285 287 295 286 270 279 119 175 136 143 152 151 144
188 188 188 192 197 212 221 236 252 255 258 262 263 268 268 269 269 270 268 265 260 262 262 260 261 255 257 252 244 256 268 273 273 284 276 272 156 191 154 143 139 142 151
186 200 188 170 184 212 235 246 254 262 267 270 274 274 274 274 270 273 271 269 267 265 257 256 253 249 253 252 258 246 247 258 261 260 287 272 196 166 163 163 144 133 131
180 189 176 181 208 226 233 250 254 259 264 275 279 282 286 282 291 281 276 283 279 275 268 262 258 250 249 246 244 246 242 250 255 273 256 275 291 174 158 160 147 149 148
176 192 199 213 243 245 250 261 273 282 281 281 280 280 277 276 263 264 265 271 274 274 271 267 263 254 250 251 245 239 241 236 235 244 250 245 262 232 165 168 169 170 163
173 209 220 255 260 274 294 297 293 292 287 284 284 281 277 280 274 275 271 275 271 265 260 260 258 255 252 256 247 243 247 240 229 228 233 243 232 219 228 179 180 167 109
183 195 241 259 280 315 300 299 314 304 291 291 289 290 286 284 280 271 269 276 272 266 263 259 258 260 254 233 240 242 242 242 236 219 224 233 220 204 196 195 170 153 146
189 239 285 7 321 293 305 311 296 293 289 286 282 278 283 284 275 266 259 265 266 267 264 258 250 243 248 240 233 237 238 235 230 235 225 231 213 205 188 194 176 168 143
61 39 330 301 300 321 289 277 280 281 282 285 285 279 274 269 277 285 275 279 288 291 286 276 268 259 247 231 219 236 239 238 228 229 231 231 209 200 192 188 187 170 170
34 312 286 336 306 290 277 274 282 289 285 283 286 297 314 325 304 298 306 296 294 288 277 272 269 266 260 250 233 235 235 224 213 216 224 228 200 188 179 178 183 186 196
306 302 314 287 275 275 292 291 293 284 302 311 317 309 305 301 294 290 285 282 274 269 263 270 272 267 260 252 238 231 218 218 214 213 224 215 206 178 165 169 183 182 168
281 276 272 279 276 282 299 295 302 322 317 318 317 306 302 298 294 294 293 298 289 283 277 272 266 260 256 248 240 225 210 211 208 207 217 215 206 167 175 170 167 162 145
266 260 272 278 309 303 304 332 310 303 356 320 311 303 300 298 298 298 293 294 291 285 286 280 272 262 250 236 220 213 201 200 202 201 206 214 192 167 172 169 163 164 162
275 279 312 311 305 325 326 321 344 300 305 308 293 283 296 288 293 293 294 295 291 288 285 273 269 260 242 216 202 195 191 192 191 189 197 214 174 166 167 166 166 168 160
302 316 324 313 346 329 333 335 315 328 306 294 290 295 296 290 295 301 302 296 294 293 280 286 285 288 236 195 189 185 183 185 180 182 194 201 165 161 158 164 165 165 159
326 152 337 353 333 340 339 332 341 323 323 320 316 317 312 310 312 308 301 303 317 316 302 299 298 296 185 180 179 183 174 173 171 176 188 193 162 164 164 166 168 164 159
13 34 347 359 359 3 356 347 332 327 320 320 324 324 327 327 319 309 310 325 319 319 316 314 311 311 172 170 176 174 165 162 164 174 176 185 162 161 163 162 165 160 156
130 206 74 31 34 13 358 342 338 331 329 330 330 328 330 335 339 338 335 329 328 326 321 323 320 318 160 160 171 153 155 159 170 176 168 164 156 164 162 163 159 157 164
126 120 89 62 45 10 353 347 337 335 338 334 331 325 319 321 328 330 333 335 334 332 330 330 328 323 187 154 157 161 160 166 171 166 155 158 158 162 160 161 160 163 161
98 84 81 71 50 14 354 346 344 344 344 342 336 335 332 343 343 342 342 340 337 339 336 335 337 336 340 120 161 161 160 165 164 160 159 158 162 158 155 157 160 162 159
93 76 100 90 50 23 6 2 1 356 350 349 345 341 348 347 350 350 349 342 347 347 346 353 357 1 355 19 74 124 149 153 155 151 154 156 156 155 154 155 161 160 163
100 70 76 82 47 29 19 20 6 357 352 355 350 351 352 351 354 352 352 351 354 354 357 359 2 10 9 18 31 72 103 118 131 145 147 148 150 150 154 157 164 166 165
113 80 64 61 51 33 28 7 353 340 345 353 355 355 351 356 358 358 357 2 2 2 2 1 4 7 18 25 32 59 63 85 138 141 145 143 147 151 155 158 158 161 161
86 73 77 71 56 43 21 348 346 349 356 8 4 358 352 359 0 2 6 10 8 6 7 8 11 11 17 23 27 36 48 65 67 96 144 147 151 151 154 155 157 156 158